Garden Valley, ID (83622)

7:13 PM MST on February 07, 2016 (GMT -0700)
Archie Creek | | Change Station
CLOSE
Current Station
Personal Weather Station
Location: Lowman, ID
Elevation: 4334 ft
Nearby Weather Stations

Elev 4334 ft 44.06 °N, 115.51 °W | Updated 3 minutes ago

Partly Cloudy
Partly Cloudy
30.2 °F
Feels Like 30 °F
N
0.0
Wind Variable Wind from North
Gusts 0.0 mph

Today
High -- | Low -- °F
--% Chance of Precip.
Yesterday
High -- | Low -- °F
Precip. -- in
Pressure 30.67 in
Visibility 10.0 miles
Clouds Clear
Windchill 30 °F
Dew Point 26 °F
Humidity 84%
Rainfall 0.00 in
Snow Depth Not available.
7:53 AM 6:00 PM
Waning Crescent, 0% visible
METAR KBOI 080153Z 00000KT 10SM CLR 06/01 A3062 RMK AO2 SLP386 T00560011
Pressure 30.67 in
Visibility 10.0 miles
Clouds Clear
Windchill 30 °F
Dew Point 26 °F
Humidity 84%
Rainfall 0.00 in
Snow Depth Not available.
7:53 AM 6:00 PM
Waning Crescent, 0% visible
METAR KBOI 080153Z 00000KT 10SM CLR 06/01 A3062 RMK AO2 SLP386 T00560011

10-Day Weather Forecast

Almanac

Astronomy

Feb. 07, 2016 Rise Set
Actual Time
Civil Twilight
Nautical Twilight
Astronomical Twilight
Moon
Length of Visible Light
Length of Day
Tomorrow will be .
, % of the Moon is Illuminated

Today's Extremes

State Highs State Lows

Community

WunderPhotos

Upload Photos

1,891,364 photos uploaded!

WunderBlog® & News

Nearby

Air Quality

  Air Quality AQ Index Pollutant
Not available.

Snow Depth

Station Depth Elevation

Earthquake Activity

City Distance Mag. Time & Date
Minimum magnitude displayed is 2.5.

Coastal Water Temperatures

Place Temperature

Stations

Nearby Weather Stations

Station Location Temp. Windchill Dew Point Humidity Wind Precip. Elev Updated Type
                   

Watches & Warnings

There are currently no watches in effect.